Tracking 19562 objects as of 24-Mar-2019
HD Live streaming from Space Station
objects crossing your sky now

EUCROPIS

Track EUCROPIS now!
10-day predictions


NORAD ID: 43807
Int'l Code: 2018-099BB
Perigee: 580.6 km
Apogee: 596.5 km
Inclination: 97.8 °
Period: 96.3 minutes
Semi major axis: 6959 km
RCS: Unknown
Launch date: December 3, 2018
Source: Germany (GER)
Launch site: AIR FORCE WESTERN TEST RANGE (AFWTR)
aabbcc
Your satellite tracking list
Your tracking list is empty




NASA's NSSDC Master Catalog

Two Line Element Set (TLE):
1 43807U 18099BB  19082.89959183 +.00000116 +00000-0 +15759-4 0  9990
2 43807 097.7519 155.9369 0011455 252.3516 107.6454 14.95312010015863
Source of the keplerian elements: AFSPC